Regional Weather Roundup
Issued by NWS

Home | Current Version | Previous Version | Graphics & Text | Print | Product List | Glossary On
Versions: 1 2 3 4 5 6 7 8 9 10 11 12 13 14 15 16 17 18 19 20 21 22 23 24 25 26 27
000
ASUS45 KBOI 270610
RWRID

IDAHO REGIONAL WEATHER ROUNDUP
NATIONAL WEATHER SERVICE BOISE ID
1200 AM MDT SAT MAY 27 2017

NOTE: "FAIR" INDICATES FEW OR NO CLOUDS BELOW 12000 FEET
WITH NO SIGNIFICANT WEATHER AND/OR OBSTRUCTIONS TO VISIBILITY

IDZ012-014-270700-
SOUTHWEST IDAHO


CITY           SKY/WX    TMP DP  RH WIND       PRES   REMARKS
BOISE          CLEAR     57  41  55 E10       30.06R
CALDWELL       CLEAR     57  42  57 E8        30.04R
MOUNTAIN HOME  CLEAR     51  47  83 NE6       30.06S
$$

IDZ016-017-270700-
SOUTHCENTRAL IDAHO


CITY           SKY/WX    TMP DP  RH WIND       PRES   REMARKS
BURLEY         CLEAR     43  41  93 SW5       30.09S
JEROME         CLEAR     48  43  82 SE5       30.10S
TWIN FALLS     CLEAR     43  42  97 S8        30.10S
$$

IDZ019>023-270700-
SOUTHEAST IDAHO


CITY           SKY/WX    TMP DP  RH WIND       PRES   REMARKS
IDAHO FALLS    MOCLDY    42  41  96 CALM      30.13R
POCATELLO      MOCLDY    44  41  89 E3        30.12R
REXBURG        MOCLDY    40  39  97 CALM      30.12R
$$

IDZ006-010-011-018-031-032-270700-
CENTRAL IDAHO MOUNTAINS


CITY           SKY/WX    TMP DP  RH WIND       PRES   REMARKS
MCCALL         CLEAR     46  36  68 CALM      30.11R
HAILEY         CLEAR     41  41 100 NW8       30.14S
STANLEY          N/A     35  32  88 S3        30.16R
SALMON         PTCLDY    52  39  62 CALM      30.05R
CHALLIS        CLEAR     46  36  68 E5        30.09R
$$

IDZ002-004-006-007-026-270700-
NORTHERN IDAHO


CITY           SKY/WX    TMP DP  RH WIND       PRES   REMARKS
LEWISTON       CLEAR     61  43  51 S8        30.00R
LOWELL           N/A     51  47  86 CALM      30.07R
COEUR D`ALENE  CLEAR     59  43  55 S7        30.01R
MULLAN PASS    CLEAR     47  31  53 NW7       30.11R
$$




USA.gov is the U.S. government's official web portal to all federal, state and local government web resources and services.